Stations météo

réclame
Mon MeteoGroup
Lakenheath/RAF, Grande-Bretagne (3583): Température de l'air & dewpoint: 22.10.2020 02:00:00 - 28.10.2020 02:00:00 (GMT)Lakenheath/RAF, Grande-Bretagne (3583): Vitesse du vent & gusts: 22.10.2020 02:00:00 - 28.10.2020 02:00:00 (GMT)Lakenheath/RAF, Grande-Bretagne (3583): Direction du vent: 22.10.2020 02:00:00 - 28.10.2020 02:00:00 (GMT)Lakenheath/RAF, Grande-Bretagne (3583): reduced air pressure: 22.10.2020 02:00:00 - 28.10.2020 02:00:00 (GMT)Lakenheath/RAF, Grande-Bretagne (3583): visibility: 22.10.2020 02:00:00 - 28.10.2020 02:00:00 (GMT)Lakenheath/RAF, Grande-Bretagne (3583): Quantités de précipitations: 22.10.2020 02:00:00 - 28.10.2020 02:00:00 (GMT)
Date & Time tt [°C] td [°C] ff [km/h] ff [knt] fx [km/h] fx [knt] dd ppp [hPa] vv [km] rr [mm]
28.10.2020 02:00:00 8,4 7,2 26 14 - - SSW 998,6 10 -
28.10.2020 01:00:00 8,2 7,4 26 14 - - SSW 998,3 10 -
28.10.2020 00:00:00 8,0 7,4 16 9 - - SSW 998,7 10 -
27.10.2020 23:00:00 8,2 7,3 21 11 - - SW 998,0 10 -
27.10.2020 22:00:00 8,5 7,1 21 11 - - SW 997,3 10 -
27.10.2020 21:00:00 8,9 7,8 18 10 - - SSW 996,6 10 -
27.10.2020 20:00:00 9,2 8,4 18 10 - - SW 995,6 10 -
27.10.2020 19:00:00 10,5 9,7 28 15 - - WSW 994,6 10 0,0
27.10.2020 18:00:00 12,2 12,2 22 12 - - W 993,2 10 0,0
27.10.2020 17:00:00 12,8 12,8 22 12 - - SW 992,2 10 0,3
27.10.2020 16:00:00 12,3 12,3 26 14 48 26 S 991,2 10 0,0
27.10.2020 15:00:00 11,5 11,5 28 15 - - S 991,5 10 0,3
27.10.2020 14:00:00 11,3 11,3 22 12 - - S 992,6 10 0,3
27.10.2020 13:00:00 10,8 10,8 24 13 - - S 994,6 9 0,0
27.10.2020 12:00:00 9,8 9,8 18 10 - - SSE 995,9 10 0,5
27.10.2020 11:00:00 9,9 9,9 18 10 - - S 997,6 9 0,0
27.10.2020 10:00:00 8,8 8,8 15 8 - - S 998,0 10 0,3
27.10.2020 09:00:00 8,7 8,4 16 9 - - S 998,7 10 0,0
27.10.2020 08:00:00 8,1 7,5 15 8 - - SSW 999,0 10 -
27.10.2020 07:00:00 7,9 7,8 15 8 - - SSW 999,0 10 -
27.10.2020 06:00:00 7,4 7,4 18 10 - - SW 999,0 10 -
27.10.2020 05:00:00 6,3 6,3 13 7 - - SSW 999,3 10 -
27.10.2020 04:00:00 6,8 6,8 16 9 - - SW 999,0 10 -
27.10.2020 03:00:00 6,7 6,6 15 8 - - SW 999,3 10 -
27.10.2020 02:00:00 6,7 6,6 15 8 - - SW 999,3 10 -
27.10.2020 01:00:00 6,7 6,4 18 10 - - SW 999,3 10 -
27.10.2020 00:00:00 7,1 6,5 15 8 - - SW 999,3 10 -
26.10.2020 23:00:00 7,3 6,7 21 11 - - SW 999,3 10 -
26.10.2020 22:00:00 7,0 6,6 21 11 - - SW 999,3 10 -
26.10.2020 21:00:00 7,7 6,9 18 10 - - SW 999,0 10 -
26.10.2020 20:00:00 8,2 7,1 18 10 - - WSW 998,3 10 -
26.10.2020 19:00:00 8,3 7,7 15 8 - - WSW 998,0 10 0,0
26.10.2020 18:00:00 9,3 8,1 13 7 - - SW 997,3 10 -
26.10.2020 17:00:00 10,1 9,0 18 10 - - WSW 996,6 10 -
26.10.2020 16:00:00 11,3 9,7 21 11 - - WSW 995,9 10 -
26.10.2020 15:00:00 12,7 11,3 22 12 - - WSW 995,6 10 -
26.10.2020 14:00:00 12,2 12,0 18 10 - - WSW 995,3 10 0,0
26.10.2020 13:00:00 11,9 11,6 26 14 - - WSW 994,9 10 0,0
26.10.2020 12:00:00 11,2 10,7 26 14 - - WSW 994,9 10 0,0
26.10.2020 11:00:00 10,5 9,6 26 14 - - SW 994,9 10 0,0
26.10.2020 10:00:00 10,4 9,5 24 13 - - SW 994,6 10 -
26.10.2020 09:00:00 9,0 8,4 24 13 - - SSW 994,9 10 -
26.10.2020 08:00:00 7,4 7,3 16 9 - - SSW 994,9 10 -
26.10.2020 07:00:00 6,5 6,4 15 8 - - SSW 994,6 10 -
26.10.2020 06:00:00 6,2 6,1 13 7 - - SSW 994,6 10 -
26.10.2020 05:00:00 6,2 6,2 13 7 - - SSW 994,2 10 -
26.10.2020 04:00:00 6,4 6,4 11 6 - - S 994,2 10 -
26.10.2020 03:00:00 6,6 6,6 9 5 - - S 994,2 10 -
26.10.2020 02:00:00 7,2 7,2 9 5 - - S 994,9 10 -
26.10.2020 01:00:00 7,3 7,3 13 7 - - SSW 994,9 10 -
26.10.2020 00:00:00 7,4 7,4 13 7 - - S 995,3 10 -
25.10.2020 23:00:00 7,9 7,9 11 6 - - S 995,3 10 -
25.10.2020 22:00:00 7,9 7,9 9 5 - - S 995,6 10 -
25.10.2020 21:00:00 8,2 8,2 11 6 - - S 995,6 10 0,0
25.10.2020 20:00:00 9,4 9,4 11 6 - - S 995,6 10 0,3
25.10.2020 19:00:00 9,1 8,8 11 6 - - S 995,6 10 -
25.10.2020 18:00:00 9,7 8,8 16 9 - - S 995,3 10 -
25.10.2020 17:00:00 10,3 8,7 13 7 - - S 994,9 10 -
25.10.2020 16:00:00 11,5 9,2 13 7 - - S - 10 -
25.10.2020 15:00:00 12,8 9,8 18 10 - - S 994,6 10 -
25.10.2020 14:00:00 13,2 10,4 22 12 - - SSW 994,6 10 -
25.10.2020 13:00:00 13,2 10,6 26 14 - - SSW 994,9 10 -
25.10.2020 12:00:00 12,3 11,0 24 13 - - SSW 995,3 10 -
25.10.2020 11:00:00 12,6 11,5 26 14 - - SSW 995,6 10 -
25.10.2020 10:00:00 10,6 10,3 15 8 - - S 995,9 10 -
25.10.2020 09:00:00 9,6 9,4 13 7 - - S 995,9 10 -
25.10.2020 08:00:00 8,9 8,6 15 8 - - S 995,9 10 -
25.10.2020 07:00:00 8,4 8,4 16 9 - - S 995,3 10 -
25.10.2020 06:00:00 8,3 8,3 15 8 - - S 995,2 10 -
25.10.2020 05:00:00 8,6 8,6 11 6 - - S 995,6 10 -
25.10.2020 04:00:00 8,9 8,9 15 8 - - SSW 994,9 10 -
25.10.2020 03:00:00 9,7 9,7 18 10 - - SSW 994,6 10 -
25.10.2020 02:00:00 10,7 10,7 21 11 - - SW 994,6 10 0,0
25.10.2020 01:00:00 11,3 11,3 21 11 - - SW 994,6 10 0,0
25.10.2020 00:00:00 - - - - - - - - - -
24.10.2020 23:00:00 11,0 11,0 16 9 - - SSW 993,9 10 1,0
24.10.2020 22:00:00 12,5 12,5 31 17 - - SW 993,6 10 1,3
24.10.2020 21:00:00 12,5 12,5 16 9 - - S 993,2 10 1,5
24.10.2020 20:00:00 12,7 12,7 24 13 50 27 SSW 993,6 10 2,0
24.10.2020 19:00:00 13,7 13,7 35 19 61 33 SW 994,2 8 6,6
24.10.2020 18:00:00 15,5 15,5 26 14 57 31 S 993,9 10 0,0
24.10.2020 17:00:00 15,6 15,6 31 17 55 30 S 994,6 10 -
24.10.2020 16:00:00 15,3 15,3 35 19 54 29 S 995,9 10 -
24.10.2020 15:00:00 14,8 14,8 34 18 57 31 S 997,6 10 -
24.10.2020 14:00:00 15,2 15,2 26 14 54 29 S 999,0 10 -
24.10.2020 13:00:00 14,9 14,9 21 11 52 28 S 1000,0 10 -
24.10.2020 12:00:00 14,7 14,7 26 14 - - SSW 1001,0 10 0,0
24.10.2020 11:00:00 13,2 13,2 18 10 - - S 1001,7 10 -
24.10.2020 10:00:00 12,5 12,5 18 10 - - S 1002,7 10 -
24.10.2020 09:00:00 11,1 11,1 16 9 - - S 1003,4 10 -
24.10.2020 08:00:00 10,3 10,3 22 12 - - S 1003,7 10 -
24.10.2020 07:00:00 9,2 9,2 18 10 - - S 1004,4 10 -
24.10.2020 06:00:00 8,8 8,6 16 9 - - S 1005,1 10 -
24.10.2020 05:00:00 8,4 7,3 15 8 - - S 1005,4 10 -
24.10.2020 04:00:00 7,6 7,2 13 7 - - SSE 1006,4 10 -
24.10.2020 03:00:00 7,5 6,9 15 8 - - S 1006,8 10 -
24.10.2020 02:00:00 6,9 6,3 13 7 - - S 1007,8 10 -
24.10.2020 01:00:00 7,0 6,9 9 5 - - S 1008,5 10 -
24.10.2020 00:00:00 6,9 6,9 9 5 - - SSW 1008,8 10 -
23.10.2020 23:00:00 7,9 7,9 13 7 - - SW 1008,8 10 -
23.10.2020 22:00:00 8,4 8,4 15 8 - - SW 1008,8 10 -
23.10.2020 21:00:00 7,9 7,9 15 8 - - WSW 1008,8 10 -
23.10.2020 20:00:00 9,4 9,4 15 8 - - SW 1008,1 10 -
23.10.2020 19:00:00 10,0 10,0 15 8 - - SW 1007,8 10 -
23.10.2020 18:00:00 12,1 12,1 21 11 - - SW 1007,1 10 -
23.10.2020 17:00:00 13,0 13,0 21 11 - - SW 1006,1 10 -
23.10.2020 16:00:00 13,8 13,8 28 15 - - WSW 1005,7 10 -
23.10.2020 15:00:00 14,5 14,5 29 16 - - WSW 1005,1 10 -
23.10.2020 14:00:00 14,2 14,2 21 11 - - SW 1005,1 10 0,3
23.10.2020 13:00:00 12,9 12,9 16 9 - - SW 1005,4 9 3,0
23.10.2020 12:00:00 14,5 14,5 18 10 - - SW 1005,4 10 -
23.10.2020 11:00:00 14,6 14,6 18 10 - - SW 1006,1 10 -
23.10.2020 10:00:00 14,2 14,2 21 11 - - SW 1006,1 10 -
23.10.2020 09:00:00 13,5 13,5 22 12 - - SW 1006,1 10 -
23.10.2020 08:00:00 12,6 12,6 15 8 - - S 1006,4 10 0,0
23.10.2020 07:00:00 11,9 11,9 18 10 - - S 1006,1 10 -
23.10.2020 06:00:00 11,5 11,5 16 9 - - S 1006,4 10 -
23.10.2020 05:00:00 11,0 11,0 9 5 - - SSE 1007,1 10 -
23.10.2020 04:00:00 10,6 10,6 9 5 - - SSE 1007,4 10 -
23.10.2020 03:00:00 9,7 9,7 5 3 - - SE 1008,1 10 -
23.10.2020 02:00:00 10,2 10,2 8 4 - - S 1008,8 10 -
23.10.2020 01:00:00 9,8 9,8 8 4 - - SSW 1009,5 10 -
23.10.2020 00:00:00 10,3 10,3 8 4 - - SSW 1009,8 10 -
22.10.2020 23:00:00 9,9 9,9 13 7 - - WSW - 10 -
22.10.2020 22:00:00 9,9 9,9 11 6 - - SW - 10 -
22.10.2020 21:00:00 8,6 8,6 8 4 - - SW - 10 -
22.10.2020 20:00:00 8,6 8,6 5 3 - - SW - 10 -
22.10.2020 19:00:00 9,6 9,6 0 0 - - N - 10 -
22.10.2020 18:00:00 8,9 8,9 11 6 - - SW 1009,1 10 -
22.10.2020 17:00:00 11,6 11,6 13 7 - - WSW 1008,5 10 -
22.10.2020 16:00:00 13,3 13,0 16 9 - - W 1007,8 10 -
22.10.2020 15:00:00 13,6 13,3 24 13 - - WSW 1007,8 10 -
22.10.2020 14:00:00 14,2 13,9 29 16 50 27 WSW 1007,4 10 -
22.10.2020 13:00:00 14,4 14,4 34 18 - - WSW 1007,1 10 -
22.10.2020 12:00:00 14,3 14,3 24 13 - - WSW 1007,1 10 -
22.10.2020 11:00:00 12,0 12,0 22 12 - - SW 1006,8 10 0,3
22.10.2020 10:00:00 11,9 11,9 26 14 - - WSW 1006,8 10 -
22.10.2020 09:00:00 12,5 12,5 22 12 - - SW 1006,4 10 0,0
22.10.2020 08:00:00 12,8 12,8 26 14 - - SW 1005,7 10 0,0
22.10.2020 07:00:00 12,4 12,4 28 15 - - SW 1004,7 10 0,0
22.10.2020 06:00:00 12,4 12,4 26 14 - - SSW 1004,1 10 0,0
22.10.2020 05:00:00 12,5 12,5 26 14 - - SW 1004,1 10 -
22.10.2020 04:00:00 12,4 12,4 24 13 - - SW 1003,4 10 -
22.10.2020 03:00:00 12,9 12,9 35 19 54 29 SW 1002,7 10 -
22.10.2020 02:00:00 12,9 12,9 31 17 - - SSW 1002,7 10 -

tt = Température de l'air
td = dewpoint
ff = Vitesse du vent
fx = gusts
dd = Direction du vent
ppp = reduced air pressure
vv = visibility
rr = Quantités de précipitations

stations d'obs. à proximité